sat.trackr.live / text

‹ back to catalog

STARLINK-34805

NORAD 65071 · 2025-165R

PAYLOAD ACTIVE UNKNOWN

§ Identity

Operator
Country
US
Launch date
2025-07-31
Launch site
AFWTR
Launch vehicle
Mass (kg)
RCS (m²)

Purposes: comms

External: N2YO · Heavens-Above · Gunter

§ Orbital elements

Epoch: 2026-09-20T12:11:16.993248Z

Period
93.91 min
Inclination
97.2848°
Eccentricity
0.0001402
Mean motion
15.33447806 rev/d
Perigee alt
464.6 km
Apogee alt
466.5 km
Semi-major
6,843.7 km
B*
6.5585e-4
RAAN
334.6830°
Arg perigee
90.4770°
Mean anomaly
269.6633°
Rev number
6,412

§ Raw data

STARLINK-348051 65071U 25165R   26263.50783557  .00021160  00000+0  65585-3 0  99982 65071  97.2848 334.6830 0001402  90.4770 269.6633 15.33447806 64129

JSON: /api/v1/satellites/65071 · /tle

For live sub-satellite position, see the globe view (requires WebGL).

§ Visibility from observer

Set your observer location to see the next 7 days of passes ≥ 10°. The values pass through the URL so the page stays shareable.

No JS? Fill the form by hand. The geolocation button needs JavaScript.